Wind_Speed
22 23 23 23 25 26 27 28 30 31 32 34 36 38 39 40 41 41 43 45 46 47 48 48 47 46 44 44 44 44 44 43 42 41 40 40 40 40 40 39 39 40 40 40
21 21 22 23 23 24 26 27 28 30 31 32 34 35 36 38 40 40 42 44 45 47 48 48 48 46 45 45 44 43 42 43 43 42 41 41 41 41 41 40 41 41 41 41
20 20 21 22 22 23 24 24 26 27 28 30 32 33 34 36 38 39 40 43 44 46 48 48 48 47 46 45 45 43 43 43 44 44 43 43 43 42 42 42 42 42 41 41
19 20 20 20 20 21 22 22 23 24 26 26 28 30 31 34 36 38 38 40 42 43 46 48 48 48 47 46 45 44 44 43 43 44 43 43 42 42 43 42 42 42 42 42
19 19 19 18 19 20 20 20 21 22 24 25 26 28 29 31 33 35 36 37 39 41 44 46 47 47 46 45 45 44 45 43 43 44 42 43 43 43 44 44 43 42 42 42
20 20 19 18 18 18 19 19 20 21 22 24 24 26 27 28 30 32 33 35 37 38 41 44 45 46 46 46 45 46 44 44 43 43 42 41 42 43 45 46 45 44 43 43
21 20 19 18 17 17 17 18 18 19 19 21 22 25 25 26 28 30 31 33 35 36 39 41 43 44 45 44 43 45 44 44 43 43 43 42 42 43 44 45 46 44 44 43
21 19 17 17 16 16 16 16 16 17 18 19 20 22 24 25 26 28 29 31 34 35 37 39 41 43 43 43 44 44 43 43 43 44 43 43 43 43 43 44 44 45 45 44
21 19 18 17 16 15 15 15 16 17 18 18 20 20 22 23 24 26 27 29 32 34 36 37 40 41 41 41 42 43 42 42 42 44 45 44 43 43 43 43 44 45 45 44
22 20 19 17 17 16 15 16 17 17 18 17 18 19 20 22 23 24 27 29 30 32 33 36 38 40 41 42 41 43 43 43 42 43 43 42 43 44 44 44 43 44 44 43
21 21 19 18 17 16 15 15 16 17 18 18 18 17 18 20 21 23 25 27 29 31 33 34 36 38 40 40 41 43 43 43 43 43 43 42 42 42 43 43 44 44 45 44
20 19 17 16 16 15 15 15 15 17 17 18 19 17 16 19 21 23 24 25 26 29 31 33 34 36 38 38 39 40 42 43 44 43 43 43 43 42 42 43 44 45 45 45
21 19 18 17 16 15 15 15 16 17 19 19 18 17 18 19 20 22 23 24 25 27 29 31 33 35 36 37 37 39 40 41 43 44 43 43 43 43 42 42 42 43 44 44
21 20 18 18 17 17 15 15 17 18 19 20 18 17 18 19 19 21 22 24 25 26 28 30 31 33 34 35 36 37 39 39 40 42 43 43 42 42 42 42 42 42 42 43
21 20 20 19 18 17 16 16 17 18 19 20 18 18 18 20 21 21 22 23 24 25 27 28 29 30 32 34 34 35 36 38 38 39 41 41 41 41 42 42 41 41 40 41
21 20 20 19 18 17 17 17 18 18 19 20 19 17 18 20 21 22 23 24 24 25 25 26 27 29 30 32 32 33 34 35 36 38 39 40 40 40 40 39 40 39 39 39
20 20 20 20 19 18 18 18 19 18 19 19 19 18 19 20 21 21 22 23 25 25 26 27 28 29 29 30 31 32 32 33 34 36 37 37 38 38 39 39 39 39 39 39
20 20 20 19 19 18 17 18 18 19 19 18 18 19 19 20 21 21 22 23 23 24 26 28 28 28 29 30 31 31 32 32 33 34 35 36 36 36 37 38 38 39 39 39
20 19 19 19 19 19 17 18 18 18 18 18 19 20 20 20 21 22 22 23 24 24 25 26 28 28 29 29 30 30 31 31 32 32 33 35 35 36 36 37 37 37 37 38
19 19 18 19 19 19 17 17 17 18 18 18 19 20 20 20 20 21 22 23 24 24 25 26 27 28 29 29 29 29 30 31 31 31 32 33 34 35 35 34 34 35 36 37
19 19 18 18 19 18 17 17 17 17 17 18 19 20 20 21 21 21 22 23 24 24 24 24 25 27 28 28 29 30 30 29 30 30 31 31 32 32 33 33 33 33 34 35
19 19 18 19 19 18 17 17 17 17 17 18 19 20 21 21 21 21 22 23 23 24 24 24 23 24 26 27 28 29 29 29 30 30 31 31 31 31 31 31 32 33 34 34
18 18 19 19 19 18 18 17 17 17 18 18 19 20 21 21 21 21 21 22 22 23 24 24 24 24 25 26 27 28 28 29 29 30 30 31 31 30 31 31 31 31 32 33
19 19 20 19 19 19 18 18 17 17 18 18 19 19 20 21 21 21 21 20 21 22 23 24 24 25 26 27 27 27 27 28 29 30 30 31 31 31 31 31 32 32 32 33
20 21 20 19 19 19 18 18 18 17 18 18 18 19 20 20 20 20 21 21 21 22 22 23 23 24 24 26 26 27 27 28 29 30 30 30 30 30 30 30 30 30 31 32
20 21 20 19 19 18 17 17 17 17 18 18 18 18 18 19 19 20 20 21 21 22 22 22 22 23 23 25 26 27 27 28 29 29 29 29 29 29 29 29 30 30 30 30
Wind_Direction
288 280 277 274 270 267 265 265 259 250 249 248 247 245 241 240 238 236 235 233 232 230 230 230 229 229 229 230 231 232 234 235 235 235 233 235 235 236 238 240 241 243 244 246
292 285 281 278 274 268 267 265 259 254 252 250 249 246 242 240 238 236 234 233 231 230 230 229 229 229 229 229 230 231 233 234 234 235 235 236 237 237 239 241 241 243 245 246
296 290 286 282 277 271 269 266 263 259 254 252 249 247 244 240 238 236 235 233 232 230 229 228 228 229 229 229 229 232 233 233 234 235 237 237 238 238 240 241 242 244 245 247
301 293 286 282 278 272 270 268 265 260 253 252 250 249 245 241 238 237 236 234 232 230 228 228 228 229 230 230 230 232 234 235 233 235 237 238 238 239 239 239 240 243 245 247
304 297 290 283 282 279 276 271 266 260 254 252 251 249 246 242 240 237 236 235 233 230 228 227 227 229 231 231 232 233 233 234 233 234 237 239 239 239 238 238 239 242 244 246
307 298 290 288 285 282 278 272 267 258 256 253 250 249 246 243 239 237 238 236 233 230 227 228 228 230 231 232 234 233 234 234 234 234 236 239 239 239 238 238 239 241 243 244
308 301 292 287 284 282 280 272 267 265 261 257 250 249 246 242 238 237 237 235 232 232 230 229 229 230 231 232 233 233 235 235 235 235 236 238 239 240 239 238 239 240 242 244
311 306 297 291 290 288 279 270 262 265 264 260 253 251 248 242 239 237 236 234 232 233 232 231 231 231 232 233 232 232 235 236 236 236 237 239 239 239 241 240 239 240 243 246
314 307 298 291 289 289 280 269 266 264 264 263 258 255 248 243 239 236 237 235 234 233 232 232 234 233 233 234 235 235 236 236 237 237 238 240 241 240 242 244 243 243 244 246
311 306 301 293 286 283 277 271 266 264 264 263 262 257 252 246 243 240 237 236 236 235 235 235 235 235 235 235 235 236 238 238 236 235 237 240 242 243 244 245 246 245 244 245
312 306 301 296 291 284 281 276 268 264 261 262 265 262 254 248 245 242 239 238 238 238 238 238 237 236 237 238 239 239 239 239 237 236 237 240 242 243 244 246 246 245 245 245
312 307 300 297 294 289 284 280 272 265 265 266 267 265 253 249 246 243 242 243 242 240 242 241 240 239 238 239 241 241 241 240 239 239 240 241 242 243 244 245 246 247 247 245
308 305 299 297 294 289 284 280 276 269 265 266 267 264 255 251 247 245 244 245 245 243 242 242 242 242 241 240 240 240 240 239 240 240 241 241 242 242 243 245 246 247 247 247
307 300 299 299 295 290 284 277 274 272 268 266 266 261 255 252 249 247 245 246 247 246 245 245 244 244 243 242 242 240 239 239 241 241 241 241 242 243 243 246 247 247 248 249
307 301 297 297 294 290 285 277 273 272 270 268 265 259 255 253 251 251 249 248 248 248 248 249 248 246 245 244 242 241 241 241 242 241 241 241 242 242 243 245 247 247 248 248
308 304 299 297 294 287 282 274 272 273 271 268 263 257 255 254 254 254 253 251 250 250 250 248 248 246 244 243 242 243 243 242 241 240 240 240 242 243 244 246 247 247 247 248
308 304 301 298 295 287 280 275 272 273 274 269 263 258 256 256 256 257 255 253 252 251 253 251 250 247 244 243 242 242 242 242 240 238 238 239 240 241 243 246 247 247 248 248
308 306 303 301 298 292 287 280 276 275 274 268 264 259 256 256 257 256 256 255 256 253 254 253 250 246 244 243 242 242 241 240 239 239 238 239 241 242 244 247 248 249 249 249
307 306 304 302 299 296 289 284 278 276 273 269 265 262 259 258 257 256 256 255 256 256 255 252 248 245 244 243 242 241 240 241 241 240 240 240 241 241 243 245 247 248 250 250
307 304 302 301 299 298 294 287 282 278 275 271 267 264 259 258 258 257 256 255 256 257 256 252 246 243 243 243 242 240 240 241 242 241 241 241 240 241 243 245 246 248 249 249
303 302 301 300 300 299 295 288 285 282 277 273 269 265 261 259 259 259 257 257 257 257 255 251 247 244 243 242 241 240 240 242 242 241 241 241 240 242 244 245 246 246 247 248
300 299 298 297 300 300 297 291 284 282 279 275 271 269 266 265 263 262 261 260 258 256 254 251 249 245 242 240 240 240 241 241 242 241 241 241 242 243 244 246 248 248 248 248
298 296 295 296 297 298 296 292 285 281 278 275 273 271 268 268 267 266 264 262 258 255 254 254 251 249 245 242 241 242 243 242 241 242 242 242 242 243 245 246 248 248 248 249
297 294 295 295 293 293 292 290 287 283 280 278 276 274 271 269 269 267 265 262 259 255 255 254 251 250 247 245 243 242 243 242 241 241 242 243 243 244 245 247 248 248 248 249
298 295 295 293 290 288 287 285 285 285 281 280 281 279 276 271 268 267 265 262 260 256 255 253 251 250 248 246 244 244 245 244 242 241 241 242 242 243 244 245 246 247 247 247
299 297 294 292 288 286 285 282 282 285 285 285 282 280 277 273 270 268 266 264 263 260 257 252 249 248 247 245 244 244 246 246 244 243 243 243 243 243 243 245 247 248 247 247
Height
5645 5644 5642 5642 5641 5640 5640 5640 5641 5643 5645 5646 5649 5651 5655 5658 5661 5665 5669 5673 5679 5685 5690 5695 5700 5705 5710 5714 5719 5723 5727 5731 5735 5739 5743 5746 5750 5753 5756 5759 5762 5765 5768 5771
5640 5638 5636 5634 5633 5632 5632 5632 5633 5635 5636 5637 5640 5642 5645 5647 5651 5655 5659 5663 5669 5674 5680 5685 5691 5696 5700 5705 5710 5715 5718 5723 5727 5731 5734 5738 5741 5745 5748 5751 5754 5757 5760 5762
5634 5633 5630 5628 5627 5626 5626 5626 5626 5627 5628 5629 5631 5634 5636 5639 5642 5645 5650 5654 5659 5664 5670 5676 5681 5686 5691 5696 5702 5706 5709 5713 5718 5722 5725 5729 5733 5736 5739 5743 5746 5748 5751 5754
5630 5628 5625 5623 5622 5620 5621 5620 5619 5620 5621 5622 5624 5626 5629 5630 5633 5637 5641 5645 5650 5655 5661 5666 5672 5678 5683 5688 5693 5697 5701 5705 5709 5713 5716 5720 5724 5728 5731 5734 5737 5740 5744 5746
5627 5624 5621 5619 5617 5616 5615 5615 5615 5614 5615 5617 5618 5619 5622 5623 5626 5630 5634 5638 5642 5647 5652 5657 5663 5669 5674 5679 5684 5688 5692 5696 5700 5704 5708 5711 5715 5718 5722 5725 5729 5732 5735 5738
5624 5620 5617 5615 5612 5611 5610 5610 5610 5609 5610 5611 5612 5613 5615 5617 5621 5624 5628 5631 5635 5639 5644 5649 5654 5659 5664 5669 5674 5678 5682 5687 5691 5695 5699 5702 5706 5709 5712 5716 5720 5723 5726 5729
5620 5617 5613 5610 5609 5607 5606 5606 5605 5604 5604 5605 5607 5607 5611 5612 5614 5618 5621 5624 5628 5632 5636 5641 5646 5650 5655 5660 5665 5669 5673 5678 5682 5686 5690 5694 5697 5700 5703 5707 5710 5714 5717 5720
5615 5613 5609 5606 5605 5603 5602 5602 5602 5601 5600 5601 5602 5603 5606 5607 5609 5612 5615 5618 5621 5625 5629 5633 5638 5642 5647 5651 5656 5660 5664 5668 5672 5677 5681 5685 5688 5691 5694 5698 5701 5705 5708 5711
5610 5608 5606 5603 5601 5600 5598 5597 5598 5597 5596 5597 5597 5599 5601 5602 5604 5606 5609 5611 5614 5618 5622 5626 5630 5634 5638 5643 5647 5651 5655 5659 5663 5667 5671 5675 5679 5682 5685 5689 5692 5696 5699 5702
5606 5604 5602 5599 5598 5596 5595 5593 5593 5593 5592 5592 5593 5594 5596 5596 5598 5600 5603 5605 5608 5612 5615 5619 5622 5626 5631 5635 5639 5643 5646 5650 5654 5658 5662 5666 5669 5673 5676 5680 5683 5687 5690 5693
5602 5600 5598 5595 5593 5592 5591 5590 5589 5589 5589 5589 5589 5593 5591 5592 5593 5595 5598 5600 5603 5606 5609 5612 5615 5619 5623 5627 5630 5634 5638 5642 5646 5650 5654 5657 5661 5664 5667 5671 5674 5677 5680 5684
5598 5596 5593 5592 5590 5588 5587 5586 5586 5586 5585 5585 5584 5589 5586 5587 5588 5590 5592 5594 5597 5599 5602 5605 5608 5611 5614 5618 5622 5625 5629 5633 5637 5641 5645 5648 5652 5655 5659 5662 5665 5668 5671 5674
5593 5591 5589 5588 5588 5585 5583 5582 5581 5581 5581 5580 5581 5585 5582 5582 5583 5585 5587 5589 5590 5593 5595 5597 5600 5603 5606 5610 5613 5617 5620 5624 5628 5631 5635 5639 5642 5646 5649 5652 5655 5658 5661 5664
5588 5587 5586 5584 5582 5580 5579 5578 5577 5576 5576 5575 5576 5577 5578 5577 5578 5579 5581 5583 5584 5586 5588 5590 5593 5595 5598 5601 5604 5608 5611 5615 5618 5622 5626 5630 5633 5636 5640 5643 5646 5649 5652 5655
5584 5583 5580 5579 5577 5575 5574 5574 5572 5571 5571 5571 5572 5571 5572 5572 5573 5574 5575 5577 5578 5580 5582 5583 5585 5587 5590 5593 5596 5599 5602 5606 5609 5613 5617 5620 5624 5627 5630 5633 5637 5640 5643 5646
5580 5578 5575 5574 5572 5570 5569 5569 5567 5566 5566 5565 5565 5567 5566 5566 5567 5568 5569 5570 5572 5573 5575 5576 5578 5579 5582 5584 5587 5590 5594 5597 5600 5604 5608 5611 5615 5618 5621 5624 5627 5630 5633 5636
5575 5573 5570 5569 5567 5565 5564 5564 5562 5561 5560 5560 5560 5562 5561 5561 5562 5563 5563 5564 5565 5566 5568 5569 5570 5572 5574 5576 5579 5582 5585 5588 5592 5595 5599 5602 5606 5609 5612 5615 5618 5621 5624 5627
5570 5568 5565 5563 5562 5560 5562 5558 5556 5556 5555 5554 5554 5555 5555 5556 5556 5556 5557 5558 5559 5560 5561 5561 5563 5564 5567 5569 5571 5574 5577 5580 5583 5586 5590 5593 5597 5600 5603 5606 5609 5612 5614 5617
5565 5563 5560 5558 5556 5555 5555 5552 5551 5550 5550 5549 5549 5549 5549 5549 5550 5550 5551 5551 5552 5552 5553 5554 5556 5557 5559 5562 5564 5566 5569 5572 5575 5578 5581 5585 5588 5591 5594 5597 5600 5603 5605 5608
5561 5558 5556 5553 5550 5550 5550 5547 5545 5545 5545 5544 5543 5543 5543 5543 5544 5545 5545 5545 5545 5546 5546 5547 5548 5550 5552 5554 5557 5559 5562 5565 5568 5570 5573 5576 5580 5583 5586 5589 5591 5594 5596 5599
5556 5553 5551 5548 5545 5544 5544 5542 5540 5541 5540 5538 5537 5537 5537 5537 5538 5538 5538 5538 5538 5539 5539 5540 5541 5543 5545 5547 5550 5552 5555 5558 5560 5563 5566 5569 5572 5575 5577 5580 5583 5585 5588 5590
5550 5548 5546 5543 5541 5542 5538 5536 5536 5535 5533 5532 5531 5531 5531 5531 5531 5531 5531 5531 5532 5532 5533 5533 5535 5536 5538 5540 5543 5545 5548 5550 5553 5555 5558 5561 5564 5567 5569 5572 5574 5576 5579 5581
5545 5543 5540 5539 5538 5535 5532 5531 5529 5528 5527 5526 5525 5525 5525 5525 5525 5525 5525 5525 5525 5526 5526 5527 5528 5529 5531 5533 5536 5538 5540 5542 5545 5547 5550 5553 5556 5559 5561 5563 5566 5568 5570 5573
5539 5536 5534 5532 5531 5529 5527 5525 5524 5522 5521 5520 5520 5519 5519 5518 5518 5519 5519 5519 5519 5519 5520 5520 5521 5522 5524 5526 5528 5530 5532 5535 5537 5540 5542 5545 5548 5550 5553 5555 5557 5560 5562 5564
5532 5530 5528 5526 5525 5523 5521 5519 5518 5516 5515 5515 5514 5513 5512 5512 5512 5512 5512 5512 5512 5512 5513 5513 5514 5515 5517 5518 5520 5523 5525 5527 5529 5532 5534 5537 5539 5541 5544 5546 5548 5551 5553 5555
5526 5524 5522 5520 5518 5516 5515 5514 5513 5511 5510 5509 5508 5507 5506 5506 5506 5505 5505 5505 5505 5505 5506 5506 5507 5508 5509 5511 5513 5515 5517 5519 5521 5524 5526 5529 5531 5533 5535 5538 5540 5542 5545 5547